[[{"header":{"parameterUnit":"m.s-1","parameterCategory":1,"la1":30.2991,"la2":30.254,"lo1":-89.0895,"lo2":-89.0444,"dy":0.0017,"dx":0.0017,"nx":28,"ny":28,"refTime":"2024-05-15T09:00:00:Z","depth":0,"parameterNumber":2,"parameterNumberName":"U-component_of_WINDS"},"data":[0,0,0,0,0,0,0,0,0,0,0,0,0,0,0,0,0,0,0,0,0,0,0,0,0,0,0,0,0,0,0,0,0,0,0,0,0,0,0,0,0,0,0,0,0,0,0,0,0,0,0,0,0,0,0,0,0,0,-1.4339,-1.4338,0,-1.4236,-1.4235,-1.4234,-1.4171,-1.417,-1.417,-1.417,-1.4062,-1.406,-1.4057,0,0,0,0,0,0,0,0,0,0,0,0,0,-1.4481,-1.4478,-1.4339,-1.4338,-1.4337,-1.4237,-1.4235,-1.4234,-1.4171,-1.417,-1.417,-1.4169,-1.4063,-1.406,-1.4057,0,0,0,0,0,0,0,0,0,0,0,0,0,-1.4403,-1.4478,-1.4339,-1.4293,-1.4288,-1.4237,-1.4235,-1.4233,-1.4171,-1.417,-1.417,-1.4169,-1.4064,-1.406,-1.4057,-1.4043,0,0,-1.4045,-1.4043,0,0,0,0,0,0,0,0,-1.4407,-1.4397,-1.4301,-1.4296,-1.429,-1.4216,-1.4245,-1.4169,-1.4171,-1.4215,-1.417,-1.4169,-1.4114,-1.4106,-1.4087,-1.4038,-1.4033,-1.4044,-1.4042,-1.404,-1.4039,0,0,0,0,0,0,0,-1.4413,-1.4402,-1.4298,-1.43,-1.4293,-1.4277,-1.4266,-1.4231,-1.4168,-1.4211,-1.4206,-1.4195,-1.411,-1.4091,-1.4084,-1.4031,-1.4045,-1.4041,-1.4039,-1.4037,-1.3966,-1.3966,0,0,0,0,0,0,-1.4426,-1.4406,-1.4302,-1.4295,-1.4349,-1.4275,-1.4262,-1.424,-1.4169,-1.4157,-1.4196,-1.4193,-1.4098,-1.4089,-1.408,-1.4059,-1.4041,-1.4037,-1.4035,-1.3966,-1.3966,-1.3967,0,0,0,0,0,0,-1.4429,-1.4417,-1.4306,-1.435,-1.4334,-1.4273,-1.4249,-1.4238,-1.4219,-1.4157,-1.4145,-1.4188,-1.4097,-1.4086,-1.4053,-1.4054,-1.4035,-1.4032,-1.3965,-1.3966,-1.3966,-1.4017,0,0,0,0,0,0,-1.4433,-1.4418,-1.4412,-1.435,-1.4332,-1.428,-1.4249,-1.4237,-1.4213,-1.4208,-1.4146,-1.4135,-1.4096,-1.4059,-1.4049,-1.4049,-1.4029,-1.3965,-1.3966,-1.3966,-1.4015,-1.4019,-1.4023,0,0,0,0,0,-1.4438,-1.443,-1.4412,-1.44,-1.4323,-1.428,-1.427,-1.4226,-1.4213,-1.4207,-1.4167,-1.4137,-1.4057,-1.4056,-1.4044,-1.4043,-1.3964,-1.3965,-1.3966,-1.4013,-1.4018,-1.4023,0,0,0,0,0,0,-1.4493,-1.4421,-1.44,-1.4372,-1.4333,-1.427,-1.426,-1.4233,-1.4196,-1.4193,-1.4139,-1.4125,-1.4098,-1.4067,-1.4068,-1.4027,-1.4007,-1.4006,-1.4047,-1.4051,-1.4055,-1.4062,-1.4026,0,0,0,0,0,-1.4502,-1.4473,-1.4412,-1.4392,-1.4374,-1.4321,-1.43,-1.427,-1.4227,-1.421,-1.4168,-1.4127,-1.4092,-1.4071,-1.4035,-1.4011,-1.3997,-1.4005,-1.4009,-1.4013,-1.4011,-1.3997,-1.4,-1.397,-1.397,-1.397,0,0,-1.4519,-1.4476,-1.4461,-1.4402,-1.4368,-1.434,-1.4307,-1.4278,-1.4256,-1.4205,-1.4171,-1.414,-1.4091,-1.4062,-1.4048,-1.4036,-1.4017,-1.4014,-1.4017,-1.4014,-1.3998,-1.4001,-1.4003,-1.397,-1.397,-1.397,0,0,-1.4536,-1.4501,-1.4481,-1.4449,-1.4399,-1.4364,-1.4359,-1.4301,-1.4278,-1.4244,-1.4205,-1.4179,-1.4121,-1.4087,-1.4063,-1.4071,-1.4042,-1.4061,-1.4081,-1.4068,-1.407,-1.4072,-1.4074,-1.4075,-1.4061,-1.4061,-1.4061,0,-1.4563,-1.4519,-1.4474,-1.4447,-1.4423,-1.4378,-1.4357,-1.4327,-1.4268,-1.4252,-1.4241,-1.4168,-1.4132,-1.4095,-1.4097,-1.4079,-1.4072,-1.4066,-1.4074,-1.4075,-1.4076,-1.4077,-1.4078,-1.4063,-1.4063,-1.4063,-1.4062,0,-1.4555,-1.4525,-1.4515,-1.446,-1.4435,-1.4411,-1.4363,-1.4343,-1.4316,-1.4282,-1.4249,-1.4204,-1.416,-1.4149,-1.4122,-1.4109,-1.4103,-1.4084,-1.4063,-1.4082,-1.4082,-1.4082,-1.4067,-1.4066,-1.4065,-1.4065,0,0,-1.4599,-1.4523,-1.4519,-1.4494,-1.4437,-1.4413,-1.4389,-1.4346,-1.4329,-1.4291,-1.4269,-1.4222,-1.4204,-1.4177,-1.4146,-1.4134,-1.4142,-1.4115,-1.4113,-1.4121,-1.4125,-1.4139,-1.414,-1.4124,-1.4124,-1.4124,-1.4129,0,-1.4607,-1.456,-1.452,-1.4488,-1.446,-1.4418,-1.4397,-1.436,-1.4328,-1.43,-1.4266,-1.4233,-1.4212,-1.4195,-1.4182,-1.4144,-1.4142,-1.4144,-1.4102,-1.4101,-1.4113,-1.4141,-1.4155,-1.4161,-1.4129,-1.4129,-1.4129,0,-1.4608,-1.4572,-1.4538,-1.4485,-1.4472,-1.4453,-1.4411,-1.4385,-1.4343,-1.4321,-1.4292,-1.426,-1.4232,-1.4217,-1.4178,-1.4179,-1.4161,-1.414,-1.4139,-1.4131,-1.4114,-1.4132,-1.4162,-1.4163,-1.4129,-1.4129,-1.4129,0,-1.4642,-1.4586,-1.4558,-1.4539,-1.4476,-1.4464,-1.4438,-1.4395,-1.4373,-1.4337,-1.4322,-1.4283,-1.4261,-1.4232,-1.4191,-1.4184,-1.4156,-1.4137,-1.4137,-1.4138,-1.413,-1.4131,-1.4156,-1.4122,-1.4122,-1.4122,-1.4122,0,-1.4653,-1.4633,-1.4573,-1.4556,-1.4533,-1.4488,-1.4467,-1.4437,-1.44,-1.4376,-1.4338,-1.4316,-1.4264,-1.4236,-1.4204,-1.4176,-1.4167,-1.4149,-1.414,-1.4151,-1.4153,-1.4136,-1.4133,-1.4122,-1.4122,-1.4122,-1.4122,0,-1.4687,-1.4646,-1.4613,-1.4558,-1.4543,-1.4529,-1.4481,-1.4463,-1.4431,-1.4402,-1.4392,-1.4342,-1.4307,-1.4264,-1.4216,-1.4194,-1.417,-1.4158,-1.4184,-1.4179,-1.418,-1.418,-1.4193,-1.4192,-1.4161,-1.4162,-1.4162,0,-1.4695,-1.4679,-1.4623,-1.4605,-1.458,-1.4551,-1.4528,-1.4485,-1.4463,-1.4414,-1.4402,-1.4365,-1.4333,-1.428,-1.4239,-1.4202,-1.4188,-1.4195,-1.4181,-1.4193,-1.4186,-1.4187,-1.4185,-1.4197,-1.4198,-1.4198,-1.4199,0,-1.4714,-1.4695,-1.4664,-1.4627,-1.4601,-1.457,-1.4536,-1.4523,-1.4473,-1.445,-1.4415,-1.4391,-1.4342,-1.4306,-1.4264,-1.4237,-1.4209,-1.4204,-1.4202,-1.4211,-1.4227,-1.4217,-1.4191,-1.4203,-1.4203,-1.4202,-1.4202,-1.4202,-1.4734,-1.4718,-1.4677,-1.4644,-1.4615,-1.4585,-1.4565,-1.4532,-1.4502,-1.4459,-1.4436,-1.4402,-1.4361,-1.4303,-1.4277,-1.4249,-1.4239,-1.4236,-1.4235,-1.4234,-1.4237,-1.4234,-1.4242,-1.4242,-1.4241,-1.4241,-1.4241,0,-1.475,-1.4722,-1.4693,-1.4648,-1.4622,-1.4601,-1.4563,-1.4543,-1.4513,-1.4478,-1.4448,-1.4409,-1.4374,-1.4331,-1.4294,-1.428,-1.4266,-1.4271,-1.4271,-1.4265,-1.4249,-1.4254,-1.4283,-1.4283,-1.4283,-1.4283,-1.4283,-1.4283,-1.4755,-1.4727,-1.4704,-1.4661,-1.4633,-1.46,-1.458,-1.4553,-1.4525,-1.4482,-1.4453,-1.4427,-1.4389,-1.4348,-1.4316,-1.4304,-1.4291,-1.43,-1.4284,-1.427,-1.4266,-1.4262,-1.4267,-1.4298,-1.4298,-1.4302,-1.4302,-1.4302]},{"header":{"parameterUnit":"m.s-1","parameterCategory":1,"la1":30.2991,"la2":30.254,"lo1":-89.0895,"lo2":-89.0444,"dy":0.0017,"dx":0.0017,"nx":28,"ny":28,"refTime":"2024-05-15T09:00:00:Z","depth":0,"parameterNumber":3,"parameterNumberName":"V-component_of_WINDS"},"data":[0,0,0,0,0,0,0,0,0,0,0,0,0,0,0,0,0,0,0,0,0,0,0,0,0,0,0,0,0,0,0,0,0,0,0,0,0,0,0,0,0,0,0,0,0,0,0,0,0,0,0,0,0,0,0,0,0,0,1.9643,1.9643,0,1.9621,1.9621,1.9621,1.9677,1.9679,1.968,1.9682,1.9656,1.9654,1.9651,0,0,0,0,0,0,0,0,0,0,0,0,0,1.973,1.9728,1.9643,1.9643,1.9642,1.9621,1.9621,1.9621,1.9676,1.9679,1.9681,1.9683,1.9657,1.9654,1.9651,0,0,0,0,0,0,0,0,0,0,0,0,0,1.9698,1.9728,1.9643,1.9668,1.967,1.9621,1.9621,1.962,1.9676,1.9679,1.9681,1.9684,1.9658,1.9654,1.9651,1.9576,0,0,1.964,1.9639,0,0,0,0,0,0,0,0,1.97,1.9695,1.9664,1.9666,1.9668,1.9655,1.9642,1.9605,1.9675,1.9673,1.9682,1.9685,1.9653,1.965,1.964,1.9575,1.9574,1.964,1.9638,1.9636,1.9635,0,0,0,0,0,0,0,1.9702,1.9696,1.9634,1.9664,1.9666,1.9679,1.9678,1.9635,1.9649,1.9674,1.9678,1.9675,1.9655,1.9643,1.964,1.9573,1.964,1.9637,1.9635,1.9633,1.9446,1.9443,0,0,0,0,0,0,1.9702,1.9698,1.9635,1.9634,1.9691,1.9675,1.9674,1.9656,1.9649,1.9651,1.9673,1.9677,1.9648,1.9644,1.9639,1.9551,1.9636,1.9633,1.9631,1.9449,1.9445,1.9442,0,0,0,0,0,0,1.9703,1.9696,1.9636,1.9667,1.966,1.9671,1.9651,1.9654,1.9643,1.9648,1.9651,1.9659,1.965,1.9644,1.9592,1.9551,1.9631,1.9628,1.9452,1.9448,1.9444,1.9374,0,0,0,0,0,0,1.9706,1.9696,1.9668,1.9666,1.9658,1.9589,1.9648,1.9652,1.9637,1.9644,1.9636,1.9637,1.9652,1.9597,1.9588,1.9548,1.9625,1.9456,1.945,1.9445,1.938,1.9368,1.9358,0,0,0,0,0,1.9709,1.9649,1.9666,1.9659,1.9624,1.9587,1.9582,1.9601,1.9634,1.9606,1.9609,1.9637,1.9557,1.9591,1.9582,1.954,1.9458,1.9452,1.9445,1.9385,1.9371,1.9358,0,0,0,0,0,0,1.9644,1.9649,1.9669,1.9606,1.9596,1.9596,1.9561,1.9585,1.9564,1.9571,1.9594,1.9592,1.9535,1.9532,1.9569,1.9467,1.9513,1.9504,1.9471,1.9457,1.9446,1.9447,1.9622,0,0,0,0,0,1.9623,1.9594,1.9599,1.9543,1.9537,1.955,1.9534,1.955,1.954,1.9535,1.9535,1.9523,1.9495,1.9476,1.945,1.9381,1.9379,1.9347,1.9336,1.9327,1.9319,1.9282,1.9267,1.9421,1.9421,1.9421,0,0,1.9579,1.9578,1.9557,1.953,1.9524,1.9492,1.9546,1.9509,1.9485,1.9529,1.948,1.9479,1.9467,1.9406,1.9379,1.9402,1.9276,1.9319,1.9311,1.9308,1.9273,1.9259,1.9246,1.9416,1.9417,1.9418,0,0,1.9481,1.9478,1.9431,1.9424,1.9415,1.9424,1.9413,1.941,1.9411,1.9362,1.9395,1.9366,1.9318,1.9308,1.9296,1.9196,1.9221,1.9187,1.9128,1.9092,1.908,1.9069,1.9033,1.9019,1.9179,1.9179,1.9179,0,1.9427,1.9381,1.9404,1.9366,1.9353,1.9393,1.9345,1.9337,1.9319,1.9308,1.9335,1.9276,1.927,1.9207,1.9183,1.9172,1.916,1.9188,1.908,1.9069,1.906,1.9025,1.9012,1.9175,1.9176,1.9176,1.9176,0,1.9314,1.9282,1.9245,1.9228,1.9211,1.9168,1.9184,1.9164,1.9181,1.9187,1.9137,1.9132,1.9107,1.9093,1.9109,1.9032,1.9047,1.9076,1.9123,1.904,1.9009,1.8996,1.9169,1.9171,1.9172,1.9173,0,0,1.9175,1.9172,1.9158,1.9151,1.9144,1.9119,1.9077,1.9054,1.9036,1.9022,1.8988,1.8946,1.8974,1.8961,1.8976,1.8944,1.8865,1.8977,1.8978,1.8956,1.8779,1.8756,1.8741,1.8882,1.8879,1.8877,1.878,0,1.9078,1.9009,1.9029,1.8959,1.8929,1.8967,1.8931,1.8922,1.8926,1.8901,1.8906,1.8876,1.8915,1.8907,1.8877,1.888,1.8829,1.8888,1.8849,1.8847,1.885,1.8724,1.87,1.8608,1.8767,1.8765,1.8764,0,1.8956,1.8939,1.8866,1.8865,1.8853,1.882,1.88,1.8776,1.8767,1.8772,1.8758,1.878,1.8739,1.8787,1.873,1.8769,1.8755,1.8754,1.8751,1.8747,1.88,1.8716,1.8579,1.8565,1.8745,1.8746,1.8747,0,1.8861,1.882,1.8771,1.8764,1.8761,1.8737,1.8734,1.8728,1.8713,1.8695,1.8685,1.8662,1.8649,1.8631,1.8646,1.8679,1.8586,1.8635,1.8589,1.8588,1.8566,1.8567,1.8424,1.8558,1.8558,1.8558,1.8559,0,1.8751,1.8705,1.8729,1.8699,1.8648,1.8671,1.862,1.8622,1.8616,1.8586,1.8617,1.8588,1.861,1.8583,1.8594,1.8545,1.8539,1.8542,1.8545,1.8538,1.8538,1.8528,1.8535,1.8555,1.8556,1.8556,1.8557,0,1.8636,1.865,1.86,1.8601,1.86,1.8563,1.8564,1.8536,1.8543,1.8505,1.8497,1.8508,1.8478,1.8492,1.8459,1.8467,1.8404,1.8416,1.8407,1.841,1.8363,1.8366,1.8208,1.8188,1.8335,1.8333,1.8332,0,1.8564,1.853,1.8528,1.8511,1.8507,1.8479,1.8464,1.8485,1.8468,1.8455,1.8428,1.8401,1.838,1.8329,1.8334,1.8309,1.8321,1.8267,1.8317,1.8312,1.8319,1.8321,1.8317,1.8256,1.8255,1.8253,1.8252,0,1.8436,1.8445,1.8422,1.8402,1.8384,1.8368,1.8356,1.834,1.8361,1.834,1.831,1.8294,1.8262,1.8234,1.8212,1.8209,1.8233,1.8237,1.8224,1.8217,1.8213,1.8214,1.8379,1.824,1.8241,1.8242,1.8243,1.8243,1.834,1.8311,1.8306,1.828,1.8273,1.826,1.8234,1.8239,1.8215,1.8191,1.8205,1.817,1.8161,1.8135,1.8128,1.81,1.8122,1.8104,1.8099,1.8095,1.8088,1.8218,1.8097,1.8097,1.8097,1.8098,1.8098,0,1.8212,1.8211,1.8187,1.8169,1.8148,1.8175,1.8163,1.8143,1.8113,1.8103,1.8083,1.8048,1.8021,1.8024,1.7999,1.7977,1.7987,1.7969,1.7971,1.7969,1.8071,1.8084,1.7961,1.7961,1.7961,1.7961,1.7961,1.7961,1.8144,1.8097,1.8105,1.8055,1.8053,1.802,1.8011,1.7999,1.7992,1.7952,1.7931,1.7934,1.7929,1.7904,1.7881,1.7882,1.7871,1.7849,1.7854,1.7949,1.7962,1.7975,1.7987,1.7846,1.7846,1.7755,1.7754,1.7754]}]]